Taegu AB current weather conditions

sailwx.info

Wind from 270 at 4 knots

Air temperature 23.0° C
Dewpoint 5.0° C

Last reported at 2015-May-23 01:00 UTC.
Time now 2015-May-23 02:47 UTC

Location: N 35°54' E 128°39'.
View on Google Maps.

See reports from other nearby stations

  
Tides and Currents Weather Stations Pressure Air Temp Water Temp Dewpoint Dewpoint Depression Visibility Wind Speed Wind Dir Waves Ship Positions
date/time (UTC)wind fromknots sea level pressurealtimeterstation pressurevisibilityair tempwater tempwave heightnotes
2015-May-23 01:00 270 4 23.0
2015-May-23 00:00 320 4 22.0
2015-May-22 23:00 360 3 19.0
2015-May-22 22:00 330 3 18.0
2015-May-22 21:00 300 4 17.0
2015-May-22 20:00 310 2 17.0
2015-May-22 19:01 320 2 5.418.0
2015-May-22 19:00 320 2 18.0
2015-May-22 18:00 320 2 18.0
2015-May-22 17:00 350 4 19.0
2015-May-22 16:00 310 4 19.0
2015-May-22 15:00 350 4 20.0
2015-May-22 14:00 350 5 21.0
2015-May-22 13:00 350 7 22.0
2015-May-22 12:00 270 7 25.0
2015-May-22 11:00 290 7 26.0
2015-May-22 10:00 300 9 26.0
2015-May-22 09:00 320 10 27.0
2015-May-22 08:00 310 12 28.0
2015-May-22 07:00 320 8 29.0
2015-May-22 06:00 310 9 28.0
2015-May-22 05:00 320 13 28.0
2015-May-22 04:00 300 7 gusting 22 28.0
2015-May-22 03:00 300 10 26.0
2015-May-22 02:00 310 7 25.0
2015-May-22 01:00 280 6 24.0
2015-May-22 00:00 310 3 21.0
2015-May-21 23:00 290 2 19.0
2015-May-21 22:00 310 2 15.0
2015-May-21 21:00 320 1 14.0
2015-May-21 20:00 310 2 15.0
2015-May-21 19:00 300 3 16.0
2015-May-21 18:00 300 5 16.0
2015-May-21 17:00 310 4 17.0
2015-May-21 16:00 360 5 19.0
2015-May-21 15:00 330 3 20.0
2015-May-21 14:00 330 4 19.0
2015-May-21 13:00 140 1 20.0
2015-May-21 12:00 020 5 23.0
2015-May-21 11:00 280 6 25.0
2015-May-21 10:00 310 11 25.0
2015-May-21 09:00 280 10 5.426.0
2015-May-21 08:00 290 11 5.426.0
2015-May-21 07:00 290 8 5.427.0
2015-May-21 06:00 300 10 5.426.0
2015-May-21 05:00 330 13 5.426.0
2015-May-21 04:00 290 9 5.425.0
2015-May-21 03:00 300 7 5.424.0
2015-May-21 02:00 280 5 22.0